This is the latest recevied weather packets stored in our database for station/object KC8BSD. If no packets are shown the sender has not sent any weather packets the latest 10 day(s).
| Time | Temp. | Humidity | Pressure | Rain* | Wind** | Luminosity | Snow |
|---|---|---|---|---|---|---|---|
| 1778109829 | 11.11° C | 49% | 1013.7 hPa | 0 mm | - | 23 W/m² | - |
| 1778109525 | 11.11° C | 46% | 1013.7 hPa | 0 mm | - | 19 W/m² | - |
| 1778109223 | 11.11° C | 48% | 1013.7 hPa | 0 mm | - | 22 W/m² | - |
| 1778108920 | 11.11° C | 49% | 1013.8 hPa | 0 mm | - | 21 W/m² | - |
| 1778108617 | 11.11° C | 48% | 1013.6 hPa | 0 mm | - | 35 W/m² | - |
| 1778108313 | 11.67° C | 49% | 1013.7 hPa | 0 mm | - | 50 W/m² | - |
| 1778108011 | 11.67° C | 46% | 1013.8 hPa | 0 mm | - | 60 W/m² | - |
| 1778107707 | 11.67° C | 47% | 1013.8 hPa | 0 mm | - | 57 W/m² | - |
| 1778107405 | 11.67° C | 47% | 1013.5 hPa | 0 mm | - | 76 W/m² | - |
| 1778107101 | 11.67° C | 48% | 1013.6 hPa | 0 mm | - | 97 W/m² | - |
| 1778106795 | 11.67° C | 47% | 1013.8 hPa | 0 mm | - | 116 W/m² | - |
| 1778106493 | 11.67° C | 47% | 1013.9 hPa | 0 mm | - | 134 W/m² | - |
| 1778106188 | 11.67° C | 46% | 1013.8 hPa | 0 mm | - | 139 W/m² | - |
| 1778105881 | 11.67° C | 46% | 1014 hPa | 0 mm | - | 85 W/m² | - |
| 1778105579 | 11.67° C | 47% | 1013.8 hPa | 0 mm | - | 95 W/m² | - |
| 1778105276 | 11.67° C | 45% | 1013.8 hPa | 0 mm | - | 114 W/m² | - |
| 1778104970 | 11.67° C | 46% | 1013.8 hPa | 0 mm | - | 136 W/m² | - |
| 1778104667 | 11.67° C | 46% | 1013.9 hPa | 0 mm | - | 138 W/m² | - |
| 1778104362 | 12.22° C | 45% | 1013.9 hPa | 0 mm | - | 143 W/m² | - |
| 1778104054 | 11.67° C | 47% | 1013.8 hPa | 0 mm | - | 183 W/m² | - |
| 1778103751 | 11.67° C | 47% | 1013.8 hPa | 0 mm | - | 173 W/m² | - |
| 1778103449 | 12.22° C | 46% | 1013.9 hPa | 0 mm | - | 209 W/m² | - |
| 1778103145 | 12.22° C | 45% | 1013.7 hPa | 0 mm | - | 160 W/m² | - |
| 1778102837 | 12.78° C | 43% | 1013.8 hPa | 0 mm | - | 212 W/m² | - |
| 1778102533 | 12.22° C | 46% | 1013.9 hPa | 0 mm | - | 411 W/m² | - |
* Rain latest hour (hover to see other rain measurements)
** Current wind speed in m/s (hover to see current wind gust speed)